Milford, UT

6:14 AM MDT on September 29, 2016 (GMT -0600)
Milford Municipal

Weather History for KMLF - July, 2013

Change the Weather History Date:

Sunday, July 21, 2013

  Actual Average Record
Temperature  
Mean Temperature 85 °F -  
Max Temperature 100 °F 91 °F 102 °F (2003)
Min Temperature 70 °F 56 °F 50 °F (2000)
Cooling Degree Days 20    
Growing Degree Days 35 (Base 50)    
Moisture  
Dew Point 43 °F    
Average Humidity 27    
Maximum Humidity 46    
Minimum Humidity 4    
Precipitation  
Precipitation 0.00 in - - ()
Sea Level Pressure  
Sea Level Pressure 29.76 in    
Wind  
Wind Speed 14 mph (SSW)    
Max Wind Speed 30 mph    
Max Gust Speed 45 mph    
Visibility 10 miles    
Events      
Averages and records for this station are not official NWS values.
T = Trace of Precipitation, MM = Missing Value Source: NWS Daily Summary

Daily Weather History Graph

Daily Weather History Graph

Search for Another Location

Airport or City:

Trip Planner

Search our weather history database for the weather conditions in past years. The results will help you decide how hot, cold, wet, or windy it might be!

Date:

Astronomy

Jul. 21, 2013 Rise Set
Actual Time 6:25 AM MDT 8:51 PM MDT
Civil Twilight 5:54 AM MDT 9:21 PM MDT
Nautical Twilight 5:17 AM MDT 9:59 PM MDT
Astronomical Twilight 4:35 AM MDT 10:40 PM MDT
Moon 7:53 PM MDT (7/21) 5:15 AM MDT (7/21)
Length of Visible Light 15h 26m
Length of Day
14h 26m
Waxing Gibbous, 98% of the Moon is Illuminated
Jul 21
Waxing Gibbous
Jul 22
Full
Jul 29
Last Quarter
Aug 6
New
Aug 14
First Quarter

Hourly Weather History & Observations

Time (MDT) Temp. Dew Point Humidity Pressure Visibility Wind Dir Wind Speed Gust Speed Precip Events Conditions
12:52 AM 73.9 °F 45.0 °F 35% 29.73 in 10.0 mi SSW 11.5 mph - N/A   Clear
1:52 AM 73.9 °F 46.0 °F 37% 29.73 in 10.0 mi SSW 13.8 mph - N/A   Clear
2:52 AM 70.0 °F 45.0 °F 41% 29.73 in 10.0 mi SSW 11.5 mph - N/A   Clear
3:52 AM 71.1 °F 46.9 °F 42% 29.73 in 10.0 mi SSW 12.7 mph - N/A   Clear
4:52 AM 72.0 °F 48.0 °F 43% 29.73 in 10.0 mi SW 12.7 mph - N/A   Clear
5:52 AM 70.0 °F 48.0 °F 46% 29.75 in 10.0 mi SSW 12.7 mph - N/A   Clear
6:52 AM 70.0 °F 48.0 °F 46% 29.76 in 10.0 mi SSW 11.5 mph - N/A   Clear
7:52 AM 73.9 °F 48.9 °F 41% 29.77 in 10.0 mi SSW 12.7 mph - N/A   Clear
8:52 AM 79.0 °F 50.0 °F 36% 29.79 in 10.0 mi SSW 13.8 mph - N/A   Clear
9:52 AM 82.0 °F 50.0 °F 33% 29.79 in 10.0 mi SSW 20.7 mph - N/A   Clear
10:52 AM 84.9 °F 48.9 °F 29% 29.79 in 10.0 mi South 18.4 mph - N/A   Clear
11:52 AM 88.0 °F 46.0 °F 23% 29.77 in 10.0 mi South 17.3 mph 21.9 mph N/A   Clear
12:52 PM 91.9 °F 44.1 °F 19% 29.75 in 10.0 mi South 12.7 mph - N/A   Clear
1:52 PM 95.0 °F 34.0 °F 12% 29.72 in 10.0 mi Variable 5.8 mph - N/A   Clear
2:52 PM 99.0 °F 28.0 °F 8% 29.69 in 10.0 mi Variable 6.9 mph - N/A   Clear
3:52 PM 100.9 °F 21.9 °F 6% 29.69 in 10.0 mi Variable 4.6 mph 17.3 mph N/A   Clear
4:52 PM 96.1 °F 28.0 °F 9% 29.68 in 10.0 mi ESE 11.5 mph 23.0 mph N/A   Clear
5:24 PM 87.8 °F 39.2 °F 18% 29.96 in 6.0 mi South 29.9 mph 44.9 mph N/A   Haze
5:52 PM 86.0 °F 42.1 °F 21% 29.76 in 10.0 mi South 21.9 mph 29.9 mph N/A   Clear
6:52 PM 84.0 °F 43.0 °F 24% 29.76 in 10.0 mi South 17.3 mph - N/A   Clear
7:52 PM 82.9 °F 41.0 °F 23% 29.76 in 10.0 mi SSW 15.0 mph - N/A   Clear
8:52 PM 81.0 °F 43.0 °F 26% 29.78 in 10.0 mi South 12.7 mph - N/A   Clear
9:52 PM 79.0 °F 46.0 °F 31% 29.79 in 10.0 mi South 18.4 mph - N/A   Clear
10:52 PM 79.0 °F 48.0 °F 34% 29.80 in 10.0 mi South 15.0 mph - N/A   Clear
11:52 PM 78.1 °F 52.0 °F 40% 29.80 in 10.0 mi South 18.4 mph - N/A   Clear